Weather Roundup
Issued by NWS

Home | Current Version | Previous Version | Graphics & Text | Print | Product List | Glossary Off
Versions: 1 2 3 4 5 6 7 8 9 10 11 12 13 14 15 16 17 18 19 20 21 22 23 24 25 26 27 28 29 30 31 32 33 34 35 36 37 38 39 40 41 42 43 44 45 46 47 48 49 50

000
NZUS93 KARX 191310
HRRWXR

CURRENT HOURLY OBSERVATIONS ACROSS
MUCH OF THE UPPER MISSISSIPPI VALLEY
NATIONAL WEATHER SERVICE LA CROSSE WI
700 AM CST FRI DEC 19 2014


...SOUTHEAST MINNESOTA...


CITY           SKY/WX    TMP DP  RH WIND       PRES   REMARKS
ROCHESTER      CLOUDY    23  18  81 S6        30.24S WCI  16
ROCHESTER/MAYO CLOUDY    24  18  80 CALM      30.25S
WINONA         CLOUDY    25  19  80 SE3       30.30R
AUSTIN         CLOUDY    23  19  86 S3        30.24S
ALBERT LEA     CLOUDY    25  23  93 S5        30.23S WCI  19
DODGE CENTER   CLOUDY    23  21  93 S7        30.22F FOG     WCI  15
PRESTON        CLOUDY    22  18  86 CALM      30.25F
OWATONNA       MOCLDY    25  21  86 SE7       30.22F FOG     WCI  17
FARIBAULT      CLOUDY    25  21  86 S5        30.24S WCI  19
$$

...ELSEWHERE IN MINNESOTA...


CITY           SKY/WX    TMP DP  RH WIND       PRES   REMARKS
MINNEAPOLIS    CLOUDY    22  17  81 SE6       30.25S WCI  14
INTNL FALLS    CLOUDY    21  17  84 S6        30.16F WCI  13
DULUTH         CLOUDY    21  18  88 S5        30.20R WCI  15
RED WING       CLOUDY    25  18  74 SE5       30.27R WCI  19
REDWOOD FALLS  CLOUDY    27  24  89 SE8       30.18F WCI  19
MANKATO        CLOUDY    27  19  74 S7        30.22S WCI  19
WORTHINGTON    CLOUDY    27  25  93 S9        30.17S WCI  17
FAIRMONT       CLOUDY    27  21  80 S8        30.20F WCI  18
$$

...SOUTHWEST WISCONSIN...


CITY           SKY/WX    TMP DP  RH WIND       PRES   REMARKS
LA CROSSE      CLOUDY    25  18  74 CALM      30.30R
PRAIRIE DU CHI CLOUDY    26  19  77 E3        30.30S
BOSCOBEL       CLOUDY    25  19  78 E3        30.31R
LONE ROCK      CLOUDY    28  19  69 CALM      30.31R
PLATTEVILLE    CLOUDY    24  20  87 CALM      30.29S
FORT MC COY    CLOUDY    24  19  83 CALM      30.30S
CAMP DOUGLAS   CLOUDY    25  23  93 CALM      30.28S
VIROQUA        CLOUDY    23  19  85 CALM      30.25F
WIS DELLS      CLOUDY    23  20  86 CALM      30.28S
$$

...ELSEWHERE IN WISCONSIN...


CITY           SKY/WX    TMP DP  RH WIND       PRES   REMARKS
MILWAUKEE      CLOUDY    26  18  71 NW3       30.30R
MADISON        CLOUDY    25  20  81 VRB5      30.29R WCI  19
GREEN BAY      CLEAR     17  14  88 CALM      30.30R
EAU CLAIRE     CLOUDY    23  18  81 S6        30.27S WCI  16
BLACK RVR FLS  CLOUDY    24  19  83 CALM      30.28S
MEDFORD        CLOUDY    21  19  90 CALM      30.24R
WAUSAU         MOCLDY    15  12  88 CALM      30.25R
WIS RAPIDS     CLOUDY    23  19  85 CALM      30.29R
MARSHFIELD     CLOUDY    23  19  85 S5        30.26R WCI  17
RICE LAKE      CLOUDY    23  20  89 S7        30.26S WCI  15
$$

...NORTHEAST IOWA...


CITY           SKY/WX    TMP DP  RH WIND       PRES   REMARKS
DECORAH        CLOUDY    23  19  86 CALM      30.25S
MASON CITY     CLOUDY    24  21  88 SE7       30.25S WCI  16
CHARLES CITY   CLOUDY    25  21  86 SE6       30.26S WCI  18
OELWEIN        CLOUDY    23  21  93 CALM      30.27R
$$

...ELSEWHERE IN IOWA...


CITY           SKY/WX    TMP DP  RH WIND       PRES   REMARKS
DES MOINES     LGT SNOW  29  25  85 SE5       30.27R FOG     WCI  24
IOWA CITY      CLEAR     22  19  89 E3        30.32R
FORT DODGE     CLOUDY    27  25  93 S3        30.24R
$$

...NORTHERN ILLINOIS...


CITY           SKY/WX    TMP DP  RH WIND       PRES   REMARKS
CHICAGO-OHARE  CLOUDY    28  22  78 N8        30.29R WCI  20
CHICAGO-MIDWAY CLOUDY    31  24  75 N6        30.29R WCI  25
MOLINE         CLEAR     16  12  84 CALM      30.32R
ROCKFORD       CLOUDY    27  20  75 NW5       30.31R WCI  22
PEORIA         CLEAR     19  14  81 CALM      30.32R
$$

NOTE: "FAIR" INDICATES FEW OR NO CLOUDS BELOW 12,000 FEET WITH NO
SIGNIFICANT WEATHER AND/OR OBSTRUCTIONS TO VISIBILITY. WIND
SPEEDS ARE IN MILES-PER-HOUR.



USA.gov is the U.S. government's official web portal to all federal, state and local government web resources and services.